When you browse on this site, cookies collect data to enhance your experience and personalize the content and advertising you see.
Visit our Privacy Policy to learn more. By continuing to use the site, you agree to this use of cookies and data.
  • In Schweiz
  • Länderverzeichnis
  • Für 7 Tage
  • Wassertemperatur
  • Wetterkarte
  • Widgets
  • user-avatar
    Anmelden

    Stündliche Wetter Salgótarján

    Heute, 2 Juni, Dienstag

    Zeit Temperatur Niederschläge Wind Luftdruck Luftfeuchtigkeit
    00:00 +9°C° 0 mm 1 m/S 730 mmHg 86%
    01:00 +9°C° 0 mm 1 m/S 730 mmHg 91%
    02:00 +9°C° 0 mm 1 m/S 730 mmHg 91%
    03:00 +8°C° 0 mm 1 m/S 729 mmHg 91%
    04:00 +8°C° 0 mm 1 m/S 729 mmHg 90%
    05:00 +10°C° 0 mm 1 m/S 729 mmHg 86%
    06:00 +11°C° 0 mm 1 m/S 729 mmHg 82%
    07:00 +13°C° 0 mm 1 m/S 729 mmHg 77%
    08:00 +13°C° 0.5 mm 2 m/S 729 mmHg 77%
    09:00 +14°C° 0.5 mm 2 m/S 729 mmHg 77%
    10:00 +13°C° 0.5 mm 3 m/S 729 mmHg 77%
    11:00 +16°C° 0.4 mm 3 m/S 729 mmHg 69%
    12:00 +17°C° 0.4 mm 2 m/S 729 mmHg 61%
    13:00 +19°C° 0.4 mm 1 m/S 728 mmHg 53%
    14:00 +19°C° 0.2 mm 1 m/S 728 mmHg 54%
    15:00 +19°C° 0.2 mm 1 m/S 728 mmHg 55%
    16:00 +19°C° 0.2 mm 1 m/S 727 mmHg 57%
    17:00 +16°C° 0.2 mm 1 m/S 727 mmHg 64%
    18:00 +15°C° 0.2 mm 1 m/S 727 mmHg 72%
    19:00 +13°C° 0.2 mm 1 m/S 727 mmHg 79%
    20:00 +12°C° 0 mm 1 m/S 727 mmHg 81%
    21:00 +11°C° 0 mm 1 m/S 727 mmHg 83%
    22:00 +10°C° 0 mm 1 m/S 727 mmHg 85%
    23:00 +10°C° 0 mm 1 m/S 726 mmHg 86%

    Morgen, 3 Juni, Mittwoch

    Zeit Temperatur Niederschläge Wind Luftdruck Luftfeuchtigkeit
    00:00 +9°C° 0 mm 1 m/S 726 mmHg 87%
    01:00 +9°C° 0 mm 1 m/S 726 mmHg 89%
    02:00 +8°C° 0 mm 0 m/S 726 mmHg 90%
    03:00 +7°C° 0 mm 0 m/S 725 mmHg 91%
    04:00 +7°C° 0 mm 0 m/S 725 mmHg 92%
    05:00 +9°C° 0 mm 0 m/S 725 mmHg 88%
    06:00 +10°C° 0 mm 0 m/S 725 mmHg 84%
    07:00 +12°C° 0 mm 0 m/S 725 mmHg 79%
    08:00 +15°C° 0.1 mm 1 m/S 725 mmHg 71%
    09:00 +16°C° 0.1 mm 1 m/S 725 mmHg 63%
    10:00 +19°C° 0.1 mm 1 m/S 725 mmHg 55%
    11:00 +19°C° 0.1 mm 1 m/S 724 mmHg 51%
    12:00 +20°C° 0.1 mm 1 m/S 724 mmHg 48%
    13:00 +21°C° 0.1 mm 1 m/S 724 mmHg 44%
    14:00 +21°C° 0 mm 1 m/S 724 mmHg 44%
    15:00 +21°C° 0 mm 1 m/S 723 mmHg 44%
    16:00 +21°C° 0 mm 1 m/S 723 mmHg 43%
    17:00 +19°C° 0 mm 1 m/S 723 mmHg 53%
    18:00 +18°C° 0 mm 1 m/S 723 mmHg 63%
    19:00 +15°C° 0 mm 2 m/S 722 mmHg 73%
    20:00 +13°C° 0 mm 1 m/S 722 mmHg 77%
    21:00 +12°C° 0 mm 1 m/S 723 mmHg 82%
    22:00 +11°C° 0 mm 1 m/S 723 mmHg 86%
    23:00 +10°C° 0 mm 1 m/S 722 mmHg 88%

    übermorgen, 4 Juni, Donnerstag

    Zeit Temperatur Niederschläge Wind Luftdruck Luftfeuchtigkeit
    00:00 +9°C° 0 mm 0 m/S 722 mmHg 89%
    01:00 +8°C° 0 mm 0 m/S 722 mmHg 90%
    02:00 +8°C° 0 mm 0 m/S 722 mmHg 91%
    03:00 +8°C° 0 mm 0 m/S 722 mmHg 92%
    04:00 +7°C° 0 mm 0 m/S 722 mmHg 93%
    05:00 +10°C° 0 mm 0 m/S 722 mmHg 87%
    06:00 +13°C° 0 mm 1 m/S 722 mmHg 81%
    07:00 +15°C° 0 mm 1 m/S 722 mmHg 75%
    08:00 +16°C° 0 mm 1 m/S 722 mmHg 71%
    09:00 +18°C° 0 mm 2 m/S 722 mmHg 67%
    10:00 +20°C° 0 mm 2 m/S 722 mmHg 63%
    11:00 +19°C° 0.1 mm 2 m/S 721 mmHg 69%
    12:00 +19°C° 0.1 mm 2 m/S 721 mmHg 75%
    13:00 +18°C° 0.1 mm 2 m/S 721 mmHg 80%
    14:00 +19°C° 0.1 mm 2 m/S 721 mmHg 78%
    15:00 +20°C° 0.1 mm 2 m/S 720 mmHg 75%
    16:00 +21°C° 0.1 mm 3 m/S 720 mmHg 73%
    17:00 +20°C° 0.9 mm 2 m/S 720 mmHg 77%
    18:00 +19°C° 0.9 mm 2 m/S 720 mmHg 82%
    19:00 +18°C° 0.9 mm 2 m/S 719 mmHg 87%
    20:00 +17°C° 0.4 mm 2 m/S 719 mmHg 88%
    21:00 +16°C° 0.4 mm 2 m/S 719 mmHg 89%
    22:00 +15°C° 0.4 mm 2 m/S 719 mmHg 90%
    23:00 +15°C° 0 mm 2 m/S 719 mmHg 90%

    5 Juni, Freitag

    Zeit Temperatur Niederschläge Wind Luftdruck Luftfeuchtigkeit
    00:00 +15°C° 0 mm 2 m/S 719 mmHg 90%
    01:00 +15°C° 0 mm 2 m/S 719 mmHg 90%
    02:00 +15°C° 0.4 mm 2 m/S 719 mmHg 92%
    03:00 +15°C° 0.4 mm 2 m/S 719 mmHg 93%
    04:00 +14°C° 0.4 mm 2 m/S 719 mmHg 95%
    05:00 +15°C° 0 mm 2 m/S 719 mmHg 92%
    06:00 +15°C° 0 mm 2 m/S 719 mmHg 90%
    07:00 +16°C° 0 mm 2 m/S 720 mmHg 88%
    08:00 +17°C° 0.2 mm 3 m/S 720 mmHg 84%
    09:00 +18°C° 0.2 mm 4 m/S 720 mmHg 80%
    10:00 +20°C° 0.2 mm 4 m/S 721 mmHg 75%
    11:00 +20°C° 0.6 mm 4 m/S 721 mmHg 78%
    12:00 +20°C° 0.6 mm 4 m/S 721 mmHg 80%
    13:00 +20°C° 0.6 mm 4 m/S 721 mmHg 83%
    14:00 +19°C° 1.4 mm 4 m/S 721 mmHg 86%
    15:00 +19°C° 1.4 mm 3 m/S 721 mmHg 90%
    16:00 +18°C° 1.4 mm 3 m/S 721 mmHg 93%
    17:00 +17°C° 0.5 mm 2 m/S 721 mmHg 95%
    18:00 +16°C° 0.5 mm 2 m/S 722 mmHg 96%
    19:00 +15°C° 0.5 mm 2 m/S 722 mmHg 97%
    20:00 +15°C° 0.8 mm 2 m/S 722 mmHg 97%
    21:00 +15°C° 0.8 mm 1 m/S 723 mmHg 98%
    22:00 +14°C° 0.8 mm 1 m/S 723 mmHg 98%
    23:00 +14°C° 0.1 mm 1 m/S 724 mmHg 98%

    6 Juni, Samstag

    Zeit Temperatur Niederschläge Wind Luftdruck Luftfeuchtigkeit
    00:00 +13°C° 0.1 mm 1 m/S 724 mmHg 98%
    01:00 +13°C° 0.1 mm 2 m/S 724 mmHg 97%
    02:00 +12°C° 0 mm 2 m/S 724 mmHg 96%
    03:00 +10°C° 0 mm 2 m/S 725 mmHg 95%
    04:00 +9°C° 0 mm 2 m/S 725 mmHg 94%
    05:00 +12°C° 0 mm 1 m/S 726 mmHg 90%
    06:00 +13°C° 0 mm 1 m/S 726 mmHg 85%
    07:00 +15°C° 0 mm 1 m/S 727 mmHg 81%
    08:00 +17°C° 0 mm 2 m/S 727 mmHg 71%
    09:00 +19°C° 0 mm 2 m/S 728 mmHg 61%
    10:00 +21°C° 0 mm 3 m/S 728 mmHg 51%
    11:00 +22°C° 0 mm 3 m/S 728 mmHg 50%
    12:00 +24°C° 0 mm 3 m/S 728 mmHg 48%
    13:00 +24°C° 0 mm 3 m/S 728 mmHg 47%
    14:00 +24°C° 0 mm 3 m/S 728 mmHg 49%
    15:00 +24°C° 0 mm 3 m/S 728 mmHg 50%
    16:00 +24°C° 0 mm 3 m/S 728 mmHg 52%
    17:00 +21°C° 0 mm 2 m/S 727 mmHg 60%
    18:00 +19°C° 0 mm 2 m/S 727 mmHg 67%
    19:00 +18°C° 0 mm 1 m/S 727 mmHg 74%
    20:00 +16°C° 0 mm 1 m/S 727 mmHg 76%
    21:00 +15°C° 0 mm 1 m/S 728 mmHg 78%
    22:00 +13°C° 0 mm 0 m/S 728 mmHg 80%
    23:00 +13°C° 0 mm 0 m/S 728 mmHg 81%

    7 Juni, Sonntag

    Zeit Temperatur Niederschläge Wind Luftdruck Luftfeuchtigkeit
    00:00 +13°C° 0 mm 1 m/S 728 mmHg 82%
    01:00 +13°C° 0 mm 1 m/S 728 mmHg 83%
    02:00 +13°C° 0 mm 1 m/S 728 mmHg 84%
    03:00 +12°C° 0 mm 1 m/S 727 mmHg 85%
    04:00 +12°C° 0 mm 1 m/S 727 mmHg 86%
    05:00 +14°C° 0 mm 1 m/S 728 mmHg 81%
    06:00 +15°C° 0 mm 0 m/S 728 mmHg 75%
    07:00 +18°C° 0 mm 0 m/S 728 mmHg 69%
    08:00 +21°C° 0 mm 1 m/S 728 mmHg 65%
    09:00 +22°C° 0 mm 1 m/S 729 mmHg 60%
    10:00 +24°C° 0 mm 2 m/S 729 mmHg 56%
    11:00 +24°C° 0 mm 2 m/S 728 mmHg 57%
    12:00 +24°C° 0 mm 2 m/S 728 mmHg 58%
    13:00 +24°C° 0 mm 2 m/S 727 mmHg 59%
    14:00 +24°C° 0.1 mm 2 m/S 727 mmHg 59%
    15:00 +24°C° 0.1 mm 2 m/S 727 mmHg 60%
    16:00 +24°C° 0.1 mm 2 m/S 727 mmHg 60%
    17:00 +23°C° 0.5 mm 2 m/S 726 mmHg 69%
    18:00 +21°C° 0.5 mm 1 m/S 726 mmHg 77%
    19:00 +19°C° 0.5 mm 1 m/S 726 mmHg 85%
    20:00 +18°C° 0.4 mm 1 m/S 726 mmHg 87%
    21:00 +18°C° 0.4 mm 1 m/S 726 mmHg 89%
    22:00 +16°C° 0.4 mm 1 m/S 726 mmHg 91%
    23:00 +15°C° 0.3 mm 1 m/S 726 mmHg 92%
    Mehr zeigen